| time (UTC) | temp F | wind direction | speed MPH | gust MPH | rain 1hr in | rain 24hr in | rain mn in | humidity % | barometer mb |
| 20260509200021 | 90 | 128 | 0.0 | 6.0 | 0.00 | 0.00 | 0.00 | 67 | 1008.0 |
| 20260509194513 | 89 | 313 | 0.0 | 3.0 | 0.00 | 0.00 | 0.00 | 70 | 1008.1 |
| 20260509193008 | 87 | 264 | 3.0 | 7.0 | 0.00 | 0.00 | 0.00 | 71 | 1008.5 |
| 20260509191505 | 88 | 169 | 0.0 | 4.0 | 0.00 | 0.00 | 0.00 | 72 | 1008.7 |
| 20260509190003 | 87 | 69 | 1.0 | 7.0 | 0.00 | 0.00 | 0.00 | 71 | 1008.9 |
| 20260509184502 | 87 | 238 | 2.0 | 5.0 | 0.00 | 0.00 | 0.00 | 71 | 1008.9 |
| 20260509183003 | 88 | 242 | 0.0 | 10.0 | 0.00 | 0.00 | 0.00 | 71 | 1009.1 |
| 20260509181615 | 87 | 59 | 1.0 | 4.0 | 0.00 | 0.00 | 0.00 | 73 | 1009.3 |
| 20260509180058 | 86 | 263 | 1.0 | 6.0 | 0.00 | 0.00 | 0.00 | 75 | 1009.7 |
| 20260509174555 | 86 | 332 | 2.0 | 8.0 | 0.00 | 0.00 | 0.00 | 74 | 1009.8 |
| 20260509173101 | 86 | 323 | 2.0 | 5.0 | 0.00 | 0.00 | 0.00 | 75 | 1009.9 |
| 20260509171557 | 85 | 299 | 2.0 | 5.0 | 0.00 | 0.00 | 0.00 | 75 | 1009.8 |
| 20260509170052 | 84 | 312 | 0.0 | 3.0 | 0.00 | 0.00 | 0.00 | 77 | 1009.7 |
| 20260509164551 | 84 | 302 | 4.0 | 7.0 | 0.00 | 0.00 | 0.00 | 78 | 1009.9 |
| 20260509163044 | 84 | 243 | 0.0 | 3.0 | 0.00 | 0.00 | 0.00 | 78 | 1010.0 |
| 20260509161541 | 83 | 198 | 0.0 | 3.0 | 0.00 | 0.00 | 0.00 | 80 | 1010.1 |
| 20260509160039 | 82 | 167 | 4.0 | 9.0 | 0.00 | 0.00 | 0.00 | 82 | 1010.1 |
| 20260509154535 | 81 | 159 | 4.0 | 12.0 | 0.00 | 0.00 | 0.00 | 88 | 1009.8 |
| 20260509153031 | 79 | 206 | 2.0 | 7.0 | 0.00 | 0.00 | 0.00 | 97 | 1010.0 |
| 20260509151526 | 76 | 222 | 3.0 | 6.0 | 0.00 | 0.00 | 0.00 | 99 | 1009.8 |
| 20260509150025 | 75 | 193 | 2.0 | 5.0 | 0.00 | 0.00 | 0.00 | 99 | 1009.7 |
| 20260509144529 | 75 | 248 | 1.0 | 5.0 | 0.00 | 0.00 | 0.00 | 99 | 1009.9 |
| 20260509143022 | 74 | 230 | 2.0 | 4.0 | 0.00 | 0.00 | 0.00 | 99 | 1009.9 |
| 20260509141520 | 74 | 198 | 0.0 | 2.0 | 0.00 | 0.00 | 0.00 | 99 | 1009.8 |
| 20260509140018 | 74 | 167 | 2.0 | 4.0 | 0.00 | 0.00 | 0.00 | 99 | 1009.5 |
| 20260509133013 | 73 | 208 | 0.0 | 2.0 | 0.00 | 0.00 | 0.00 | 99 | 1010.2 |
| 20260509131511 | 73 | 208 | 0.0 | 2.0 | 0.00 | 0.00 | 0.00 | 99 | 1010.1 |
| 20260509130012 | 73 | 235 | 0.0 | 0.0 | 0.00 | 0.01 | 0.00 | 99 | 1010.0 |
| 20260509124509 | 73 | 235 | 0.0 | 0.0 | 0.00 | 0.01 | 0.00 | 99 | 1009.9 |
| 20260509123008 | 73 | 235 | 0.0 | 0.0 | 0.00 | 0.01 | 0.00 | 99 | 1009.9 |
| 20260509121506 | 73 | 235 | 0.0 | 0.0 | 0.00 | 0.01 | 0.00 | 99 | 1009.9 |
| 20260509120006 | 73 | 235 | 0.0 | 2.0 | 0.00 | 0.02 | 0.00 | 99 | 1009.8 |
| 20260509114504 | 73 | 234 | 0.0 | 4.0 | 0.00 | 0.02 | 0.00 | 98 | 1009.6 |
| 20260509113002 | 73 | 285 | 0.0 | 0.0 | 0.00 | 0.02 | 0.00 | 99 | 1009.6 |
| 20260509111502 | 73 | 69 | 0.0 | 0.0 | 0.00 | 0.02 | 0.00 | 98 | 1009.9 |
| 20260509110002 | 73 | 69 | 0.0 | 0.0 | 0.00 | 0.52 | 0.00 | 98 | 1009.9 |
| 20260509104501 | 73 | 69 | 0.0 | 0.0 | 0.00 | 0.52 | 0.00 | 98 | 1009.7 |
| 20260509103109 | 73 | 69 | 0.0 | 2.0 | 0.00 | 0.52 | 0.00 | 98 | 1009.8 |
| 20260509101601 | 73 | 134 | 0.0 | 0.0 | 0.00 | 0.52 | 0.00 | 98 | 1009.7 |
| 20260509094557 | 73 | 5 | 0.0 | 0.0 | 0.00 | 0.52 | 0.00 | 98 | 1009.3 |
| 20260509093059 | 73 | 5 | 0.0 | 0.0 | 0.00 | 0.52 | 0.00 | 98 | 1009.3 |
| 20260509091557 | 73 | 5 | 0.0 | 0.0 | 0.00 | 0.52 | 0.00 | 98 | 1009.6 |
| 20260509090056 | 73 | 5 | 0.0 | 0.0 | 0.00 | 0.52 | 0.00 | 98 | 1009.6 |
| 20260509084558 | 73 | 5 | 0.0 | 0.0 | 0.00 | 0.52 | 0.00 | 98 | 1009.4 |
| 20260509083054 | 73 | 9 | 0.0 | 0.0 | 0.00 | 0.52 | 0.00 | 98 | 1009.8 |
| 20260509081554 | 73 | 9 | 0.0 | 2.0 | 0.00 | 0.52 | 0.00 | 98 | 1010.0 |
| 20260509080057 | 73 | 169 | 1.0 | 3.0 | 0.00 | 0.52 | 0.00 | 98 | 1009.8 |
| 20260509074553 | 73 | 169 | 0.0 | 0.0 | 0.00 | 0.52 | 0.00 | 98 | 1009.9 |
| 20260509073052 | 73 | 169 | 0.0 | 0.0 | 0.00 | 0.52 | 0.00 | 98 | 1009.8 |
| 20260509071552 | 72 | 171 | 1.0 | 5.0 | 0.00 | 0.52 | 0.00 | 98 | 1009.6 |
| 20260509070053 | 72 | 136 | 4.0 | 8.0 | 0.00 | 0.52 | 0.00 | 98 | 1009.4 |
| 20260509064555 | 72 | 148 | 6.0 | 10.0 | 0.00 | 0.52 | 0.00 | 98 | 1009.3 |
| 20260509063048 | 72 | 165 | 4.0 | 8.0 | 0.00 | 0.52 | 0.00 | 98 | 1009.5 |
| 20260509061549 | 72 | 163 | 5.0 | 9.0 | 0.00 | 0.52 | 0.00 | 98 | 1009.5 |
| 20260509060048 | 72 | 151 | 4.0 | 8.0 | 0.00 | 0.52 | 0.00 | 98 | 1010.0 |
| 20260509054549 | 72 | 126 | 3.0 | 11.0 | 0.00 | 0.52 | 0.00 | 97 | 1009.8 |
| 20260509053044 | 72 | 153 | 5.0 | 10.0 | 0.00 | 0.52 | 0.00 | 97 | 1009.7 |
| 20260509051542 | 72 | 138 | 5.0 | 10.0 | 0.00 | 0.52 | 0.00 | 97 | 1009.4 |
| 20260509050045 | 72 | 142 | 5.0 | 9.0 | 0.00 | 0.52 | 0.52 | 97 | 1009.8 |
| 20260509044540 | 72 | 148 | 2.0 | 10.0 | 0.00 | 0.52 | 0.52 | 97 | 1009.9 |
| 20260509043039 | 72 | 98 | 4.0 | 8.0 | 0.00 | 0.52 | 0.52 | 96 | 1009.8 |
| 20260509041538 | 72 | 138 | 3.0 | 7.0 | 0.00 | 0.52 | 0.52 | 96 | 1009.9 |
| 20260509040041 | 72 | 150 | 5.0 | 9.0 | 0.00 | 0.52 | 0.52 | 96 | 1009.7 |
| 20260509034542 | 72 | 109 | 4.0 | 9.0 | 0.00 | 0.52 | 0.52 | 96 | 1009.6 |
| 20260509033036 | 72 | 132 | 4.0 | 7.0 | 0.00 | 0.52 | 0.52 | 96 | 1009.8 |
| 20260509031536 | 73 | 132 | 6.0 | 10.0 | 0.00 | 0.52 | 0.52 | 95 | 1009.6 |
| 20260509030036 | 73 | 146 | 6.0 | 10.0 | 0.00 | 0.52 | 0.52 | 95 | 1009.5 |
| 20260509024535 | 73 | 136 | 6.0 | 10.0 | 0.00 | 0.52 | 0.52 | 95 | 1009.2 |
| 20260509023038 | 73 | 136 | 6.0 | 10.0 | 0.00 | 0.52 | 0.52 | 94 | 1009.0 |
| 20260509021535 | 73 | 146 | 8.0 | 12.0 | 0.00 | 0.52 | 0.52 | 93 | 1008.9 |
| 20260509020037 | 74 | 119 | 4.0 | 9.0 | 0.00 | 0.52 | 0.52 | 93 | 1008.8 |
| 20260509014542 | 74 | 118 | 5.0 | 14.0 | 0.00 | 0.52 | 0.52 | 92 | 1008.8 |
| 20260509013041 | 74 | 123 | 5.0 | 9.0 | 0.00 | 0.52 | 0.52 | 91 | 1008.7 |
| 20260509011535 | 75 | 150 | 5.0 | 12.0 | 0.00 | 0.52 | 0.52 | 90 | 1008.8 |
| 20260509010032 | 75 | 138 | 6.0 | 9.0 | 0.00 | 0.52 | 0.52 | 90 | 1008.6 |
| 20260509004531 | 76 | 107 | 4.0 | 9.0 | 0.00 | 0.52 | 0.52 | 89 | 1008.4 |
| 20260509003034 | 76 | 127 | 4.0 | 10.0 | 0.00 | 0.52 | 0.52 | 88 | 1008.4 |
| 20260509001531 | 76 | 127 | 6.0 | 10.0 | 0.00 | 0.52 | 0.52 | 88 | 1008.4 |
| 20260509000030 | 77 | 125 | 5.0 | 9.0 | 0.00 | 0.52 | 0.52 | 88 | 1008.4 |
| 20260508234529 | 77 | 119 | 6.0 | 10.0 | 0.00 | 0.52 | 0.52 | 87 | 1008.5 |
| 20260508233033 | 77 | 80 | 3.0 | 5.0 | 0.00 | 0.52 | 0.52 | 87 | 1008.5 |
| 20260508231528 | 77 | 113 | 3.0 | 6.0 | 0.00 | 0.52 | 0.52 | 86 | 1008.8 |
| 20260508230027 | 77 | 112 | 3.0 | 6.0 | 0.00 | 0.52 | 0.52 | 86 | 1008.7 |
| 20260508224526 | 77 | 108 | 2.0 | 7.0 | 0.00 | 0.52 | 0.52 | 86 | 1008.8 |
| 20260508223027 | 78 | 123 | 2.0 | 6.0 | 0.00 | 0.52 | 0.52 | 85 | 1008.7 |
| 20260508221526 | 78 | 90 | 4.0 | 8.0 | 0.00 | 0.52 | 0.52 | 85 | 1008.5 |
| 20260508220024 | 78 | 140 | 3.0 | 6.0 | 0.00 | 0.52 | 0.52 | 85 | 1008.8 |
| 20260508214527 | 78 | 85 | 7.0 | 10.0 | 0.00 | 0.52 | 0.52 | 83 | 1008.7 |
| 20260508213021 | 78 | 134 | 4.0 | 7.0 | 0.00 | 0.52 | 0.52 | 84 | 1008.9 |
| 20260508211528 | 78 | 148 | 2.0 | 6.0 | 0.00 | 0.52 | 0.52 | 84 | 1009.0 |
| 20260508210018 | 78 | 146 | 3.0 | 7.0 | 0.00 | 0.52 | 0.52 | 82 | 1009.3 |
| 20260508204517 | 79 | 109 | 3.0 | 7.0 | 0.00 | 0.52 | 0.52 | 82 | 1009.3 |
| 20260508203013 | 78 | 180 | 0.0 | 2.0 | 0.00 | 0.52 | 0.52 | 83 | 1009.6 |
| 20260508201513 | 78 | 147 | 2.0 | 7.0 | 0.00 | 0.52 | 0.52 | 83 | 1009.7 |